Flag for Mauritania Weather past 2 weeks in Nouadhibou, Mauritania

Now
82 °F

Clear.


Feels Like: 84 °F
Forecast: 70 / 81 °F
Wind: 24 mph from North

Location: Nouadhibou Airport

Current Time: Sep 19, 2014 at 11:50:31 AM

Latest Report: Sep 19, 2014 at 11:00 AM


Visibility: 5 mi

Pressure: 29.95 "Hg

Humidity: 55%

Dew point: 64 °F

Location of NouadhibouLocation

Historic Weather in Nouadhibou — Graph

°F

Nouadhibou temperature yesterday

Maximum temperature yesterday: 86 °F (at 12:00 PM)
Minimum temperature yesterday: 72 °F (at 3:00 AM)
Average temperature yesterday: 76 °F

Past Weeks' High & Low Weather Summary

 TemperatureHumidityPressure
High97 °F (Sep 7, 1:00 PM)94% (Sep 9, 4:00 AM)29.98 "Hg (Sep 9, 4:00 AM)
Low68 °F (Sep 9, 4:00 AM)27% (Sep 7, 1:00 PM)29.77 "Hg (Sep 14, 3:00 PM)
Average76 °F72%29.88 "Hg
* Reported Sep 4 10:00 AM — Sep 19 10:00 AM, Nouadhibou, Weather by CustomWeather, © 2014

Note: Actual official high and low records may vary slightly from our data, if they occured in-between our weather recording intervals... More about our weather records

Advertising

Nouadhibou weather history for previous 24 hours

 ConditionsComfort  
Time TempWeatherWind HumidityBarometerVisibility
10:00 AM
Sep 19
79 °FClear.20 mph61%29.92 "Hg5 mi
9:00 AM73 °FClear.15 mph78%29.92 "Hg5 mi
8:00 AM72 °FClear.12 mph78%29.89 "Hg5 mi
7:00 AM72 °FClear.14 mph78%29.89 "Hg5 mi
6:00 AM72 °FPassing clouds.15 mph78%29.86 "Hg5 mi
5:00 AM72 °FPassing clouds.15 mph78%29.86 "Hg5 mi
4:00 AM73 °FPassing clouds.16 mph74%29.86 "Hg5 mi
3:00 AM72 °FPassing clouds.14 mph78%29.86 "Hg5 mi
2:00 AM72 °FPassing clouds.13 mph78%29.86 "Hg5 mi
1:00 AM73 °FClear.12 mph74%29.89 "Hg5 mi
12:00 AM75 °FClear.15 mph69%29.92 "Hg5 mi
11:00 PM
Sep 18
73 °FPassing clouds.14 mph74%29.92 "Hg5 mi
10:00 PM72 °FClear.15 mph83%29.92 "Hg5 mi
9:00 PM73 °FClear.17 mph78%29.89 "Hg5 mi
8:00 PM73 °FClear.16 mph78%29.86 "Hg5 mi
7:00 PM75 °FClear.20 mph69%29.86 "Hg5 mi
6:00 PM79 °FClear.17 mph61%29.83 "Hg5 mi
5:00 PM79 °FClear.20 mph61%29.83 "Hg5 mi
4:00 PM79 °FClear.20 mph65%29.86 "Hg5 mi
3:00 PM81 °FClear.18 mph62%29.86 "Hg5 mi
2:00 PM82 °FClear.15 mph62%29.89 "Hg5 mi
1:00 PM82 °FClear.13 mph62%29.92 "Hg5 mi
12:00 PM86 °FSunny.20 mph55%29.92 "Hg10 mi
11:00 AM84 °FSunny.18 mph58%29.95 "Hg10 mi
Weather by CustomWeather, © 2014

See weather overviewHow to use our weather pages